FW6569 Weather Reports


time (UTC)temp
C
wind
direction
speed
KPH
gust
KPH
rain 1hr
cm
rain 24hr
cm
rain mn
cm
humidity
%
barometer
mb
20260509095519 12 181 3.2 4.8 0.10 0.58 0.46 99 1008.8
20260509094520 12 0.0 0.0 0.10 0.58 0.46 98 1008.9
20260509093520 12 0.0 0.0 0.10 0.58 0.46 98 1009.2
20260509092520 12 203 1.6 3.2 0.10 0.56 0.43 98 1009.3
20260509091701 12 0.0 1.6 0.13 0.56 0.43 98 1009.2
20260509090520 12 203 3.2 4.8 0.13 0.51 0.38 98 1009.4
20260509085520 12 0.0 0.0 0.10 0.48 0.36 98 1009.3
20260509084520 12 89 1.6 4.8 0.13 0.48 0.36 98 1009.4
20260509083540 12 0.0 0.0 0.15 0.48 0.36 98 1009.5
20260509082600 12 152 0.0 3.2 0.15 0.46 0.33 98 1009.7
20260509081520 12 0.0 0.0 0.15 0.43 0.30 98 1009.7
20260509080520 12 0.0 0.0 0.13 0.38 0.25 98 1009.8
20260509075520 12 0.0 0.0 0.15 0.38 0.25 98 1009.8
20260509074540 12 0.0 0.0 0.13 0.36 0.23 98 1009.7
20260509073520 12 133 1.6 3.2 0.10 0.33 0.20 98 1010.0
20260509072521 12 0.0 1.6 0.08 0.30 0.18 98 1010.1
20260509071520 12 0.0 0.0 0.05 0.28 0.15 97 1010.2
20260509070520 12 0.0 0.0 0.05 0.25 0.13 97 1010.1
20260509065520 12 127 1.6 3.2 0.05 0.23 0.10 97 1010.0
20260509064520 12 0.0 0.0 0.05 0.23 0.10 97 1010.2
20260509063540 12 0.0 0.0 0.08 0.23 0.10 97 1010.3
20260509062600 12 0.0 0.0 0.08 0.23 0.10 97 1010.5
20260509061520 12 0.0 0.0 0.08 0.23 0.10 97 1010.5
20260509060520 12 0.0 0.0 0.05 0.20 0.08 97 1010.8
20260509055520 12 0.0 0.0 0.03 0.18 0.05 97 1010.9
20260509054520 12 0.0 0.0 0.03 0.18 0.05 97 1010.9
20260509053601 12 0.0 0.0 0.00 0.15 0.03 97 1010.8
20260509052520 12 25 0.0 1.6 0.00 0.15 0.03 97 1010.7
20260509051520 12 343 1.6 4.8 0.00 0.15 0.03 97 1010.6
20260509050540 12 3 0.0 3.2 0.03 0.15 0.03 96 1010.5
20260509045520 12 3 0.0 3.2 0.03 0.15 0.03 96 1010.4
20260509044520 12 357 1.6 4.8 0.03 0.15 0.03 96 1010.3
20260509043540 12 353 4.8 8.0 0.03 0.15 0.03 96 1010.3
20260509042520 12 338 0.0 4.8 0.05 0.15 0.03 96 1010.5
20260509041521 12 357 3.2 4.8 0.05 0.15 0.03 96 1010.6
20260509040520 12 357 0.0 3.2 0.05 0.13 0.00 96 1010.7
20260509035520 12 358 1.6 4.8 0.05 0.13 0.13 95 1010.7
20260509034521 12 6 1.6 4.8 0.08 0.13 0.13 95 1010.9
20260509033540 12 354 1.6 3.2 0.08 0.13 0.13 95 1011.1
20260509032541 12 12 1.6 3.2 0.08 0.10 0.10 94 1011.2
20260509031520 12 0.0 0.0 0.10 0.10 0.10 93 1011.3
20260509030520 12 0.0 0.0 0.08 0.08 0.08 93 1011.3
20260509025521 12 0.0 0.0 0.08 0.08 0.08 93 1011.3
20260509024541 12 0.0 0.0 0.05 0.05 0.05 92 1011.3
20260509023520 12 0.0 0.0 0.05 0.05 0.05 92 1011.1
20260509022521 13 21 0.0 4.8 0.03 0.03 0.03 91 1011.3
20260509021520 13 8 3.2 6.4 0.00 0.00 0.00 91 1011.3
20260509020521 13 8 4.8 11.3 0.00 0.00 0.00 90 1011.5
20260509015520 13 360 4.8 8.0 0.00 0.00 0.00 88 1011.6
20260509014521 13 351 3.2 9.7 0.00 0.00 0.00 87 1011.4
20260509013521 13 359 6.4 14.5 0.00 0.00 0.00 85 1011.1
20260509012521 14 5 4.8 9.7 0.00 0.00 0.00 83 1011.1
20260509011521 14 346 4.8 9.7 0.00 0.00 0.00 80 1011.0
20260509010541 15 332 3.2 9.7 0.00 0.00 0.00 77 1010.7
20260509005520 15 348 3.2 6.4 0.00 0.00 0.00 74 1010.3
20260509004521 15 345 1.6 8.0 0.00 0.00 0.00 71 1010.2
20260509003521 16 7 6.4 9.7 0.00 0.00 0.00 70 1010.2
20260509002521 16 348 1.6 6.4 0.00 0.00 0.00 68 1010.3
20260509001521 16 360 1.6 3.2 0.00 0.00 0.00 64 1010.2
20260509000521 17 0.0 0.0 0.00 0.00 0.00 65 1010.3
20260508235521 17 0.0 0.0 0.00 0.00 0.00 62 1010.3
20260508234601 17 323 0.0 1.6 0.00 0.00 0.00 59 1010.2
20260508233521 17 188 3.2 4.8 0.00 0.00 0.00 58 1010.2
20260508232521 17 0.0 0.0 0.00 0.00 0.00 60 1010.3
20260508231521 18 226 4.8 6.4 0.00 0.00 0.00 55 1010.2
20260508230521 18 207 3.2 8.0 0.00 0.00 0.00 56 1010.2
20260508225521 18 245 4.8 11.3 0.00 0.00 0.00 55 1010.2
20260508224521 18 207 4.8 6.4 0.00 0.00 0.00 57 1010.2
20260508223521 17 265 1.6 3.2 0.00 0.00 0.00 59 1010.2
20260508222521 17 202 1.6 6.4 0.00 0.00 0.00 58 1010.1
20260508221521 18 227 1.6 6.4 0.00 0.00 0.00 58 1010.1
20260508220521 18 327 0.0 1.6 0.00 0.00 0.00 56 1010.1
20260508215521 18 273 3.2 6.4 0.00 0.00 0.00 52 1010.0
20260508214521 19 222 6.4 9.7 0.00 0.00 0.00 50 1010.0
20260508213521 19 256 4.8 8.0 0.00 0.00 0.00 49 1010.0
20260508212521 19 212 8.0 12.9 0.00 0.00 0.00 48 1009.9
20260508211521 19 218 6.4 16.1 0.00 0.00 0.00 48 1010.1
20260508210521 19 239 8.0 12.9 0.00 0.00 0.00 48 1010.3
20260508205521 20 226 11.3 14.5 0.00 0.00 0.00 47 1010.2
20260508204521 20 219 8.0 11.3 0.00 0.00 0.00 48 1010.2
20260508203521 20 221 8.0 12.9 0.00 0.00 0.00 47 1010.5
20260508202541 20 232 8.0 12.9 0.00 0.00 0.00 46 1010.6
20260508201542 20 213 12.9 22.5 0.00 0.00 0.00 45 1010.9
20260508200542 20 229 11.3 19.3 0.00 0.00 0.00 45 1011.1
20260508195522 20 208 14.5 19.3 0.00 0.00 0.00 45 1011.5
20260508194522 20 232 11.3 29.0 0.00 0.00 0.00 45 1011.5
20260508193521 20 206 14.5 22.5 0.00 0.00 0.00 47 1011.7
20260508192521 19 202 17.7 25.7 0.00 0.00 0.00 45 1011.8
20260508191522 19 217 11.3 20.9 0.00 0.00 0.00 47 1012.0
20260508190521 19 215 16.1 25.7 0.00 0.00 0.00 46 1012.1
20260508185521 20 225 16.1 25.7 0.00 0.00 0.00 44 1012.1
20260508184522 20 226 16.1 25.7 0.00 0.00 0.00 44 1012.2
20260508183521 20 198 19.3 27.4 0.00 0.00 0.00 42 1012.1
20260508182542 21 189 17.7 25.7 0.00 0.00 0.00 43 1012.1
20260508181542 21 216 16.1 25.7 0.00 0.00 0.00 44 1012.2
20260508180522 20 199 17.7 27.4 0.00 0.00 0.00 44 1012.5
20260508175521 20 201 19.3 27.4 0.00 0.00 0.00 44 1012.6
20260508174522 20 196 19.3 29.0 0.00 0.00 0.00 45 1012.9
20260508173521 19 208 14.5 20.9 0.00 0.00 0.00 48 1013.2
20260508172522 19 191 17.7 24.1 0.00 0.00 0.00 47 1013.4
20260508171542 20 208 19.3 29.0 0.00 0.00 0.00 46 1013.5
20260508170522 18 207 16.1 24.1 0.00 0.00 0.00 49 1013.7
20260508165522 18 234 11.3 19.3 0.00 0.00 0.00 49 1014.0
20260508164521 20 220 20.9 37.0 0.00 0.00 0.00 46 1014.0
20260508163522 19 225 14.5 24.1 0.00 0.00 0.00 48 1014.1
20260508162522 19 220 16.1 24.1 0.00 0.00 0.00 49 1014.4
20260508161522 17 223 14.5 24.1 0.00 0.00 0.00 51 1014.5
20260508160522 17 220 14.5 20.9 0.00 0.00 0.00 52 1014.7
20260508155522 17 218 16.1 25.7 0.00 0.00 0.00 51 1014.8
20260508154522 18 217 20.9 29.0 0.00 0.00 0.00 50 1014.9
20260508153522 17 233 12.9 17.7 0.00 0.00 0.00 53 1014.9
20260508152522 17 232 16.1 22.5 0.00 0.00 0.00 53 1014.9
20260508151542 17 215 19.3 27.4 0.00 0.00 0.00 53 1015.0
20260508150522 16 213 17.7 24.1 0.00 0.00 0.00 52 1014.9
20260508145522 16 202 17.7 22.5 0.00 0.00 0.00 52 1014.9
20260508144522 16 226 11.3 25.7 0.00 0.00 0.00 54 1015.2
20260508143522 16 236 16.1 20.9 0.00 0.00 0.00 53 1015.4
20260508142542 15 209 19.3 29.0 0.00 0.00 0.00 53 1015.5
20260508141542 15 206 16.1 20.9 0.00 0.00 0.00 54 1015.5
20260508140522 15 198 14.5 22.5 0.00 0.00 0.00 54 1015.6
20260508135522 14 222 14.5 20.9 0.00 0.00 0.00 56 1015.6
20260508134522 13 210 14.5 19.3 0.00 0.00 0.00 57 1015.6
20260508133542 13 220 16.1 20.9 0.00 0.00 0.00 57 1015.6
20260508132522 13 217 16.1 24.1 0.00 0.00 0.00 58 1015.6
20260508131522 13 219 14.5 20.9 0.00 0.00 0.00 58 1015.6
20260508130522 12 214 11.3 20.9 0.00 0.00 0.00 59 1015.6
20260508125522 12 217 11.3 16.1 0.00 0.00 0.00 60 1015.6
20260508124523 11 210 9.7 14.5 0.00 0.00 0.00 62 1015.7
20260508123522 11 218 9.7 14.5 0.00 0.00 0.00 63 1015.6
20260508122522 10 201 11.3 14.5 0.00 0.00 0.00 64 1015.6
20260508121603 10 202 9.7 12.9 0.00 0.00 0.00 65 1015.5
20260508120522 10 205 11.3 14.5 0.00 0.00 0.00 65 1015.4
20260508115543 9 204 9.7 12.9 0.00 0.00 0.00 67 1015.3
20260508114522 8 187 8.0 12.9 0.00 0.00 0.00 70 1015.3
20260508113522 8 191 6.4 9.7 0.00 0.00 0.00 72 1015.2
20260508112523 7 190 6.4 6.4 0.00 0.00 0.00 74 1015.1
20260508111522 7 189 6.4 9.7 0.00 0.00 0.00 74 1015.1
20260508110523 7 194 6.4 8.0 0.00 0.00 0.00 75 1015.0
20260508105523 7 199 6.4 8.0 0.00 0.00 0.00 75 1014.9
20260508104522 6 199 4.8 8.0 0.00 0.00 0.00 76 1014.9
20260508103523 6 195 3.2 4.8 0.00 0.00 0.00 77 1014.8
20260508102522 6 190 4.8 4.8 0.00 0.00 0.00 77 1014.9
20260508101523 6 194 3.2 6.4 0.00 0.00 0.00 77 1014.9
20260508100523 6 149 3.2 4.8 0.00 0.00 0.00 76 1014.8